[[{"header":{"parameterUnit":"m.s-1","parameterCategory":1,"la1":30.2991,"la2":30.254,"lo1":-89.0895,"lo2":-89.0444,"dy":0.0017,"dx":0.0017,"nx":28,"ny":28,"refTime":"2023-11-01T09:00:00:Z","depth":0,"parameterNumber":2,"parameterNumberName":"U-component_of_WINDS"},"data":[0,0,0,0,0,0,0,0,0,0,0,0,0,0,0,0,0,0,0,0,0,0,0,0,0,0,0,0,0,0,0,0,0,0,0,0,0,0,0,0,0,0,0,0,0,0,0,0,0,0,0,0,0,0,0,0,0,0,1.0644,1.0644,0,1.061,1.0609,1.0609,1.0596,1.0597,1.0597,1.0597,1.0558,1.0557,1.0556,0,0,0,0,0,0,0,0,0,0,0,0,0,1.0697,1.0696,1.0644,1.0643,1.0643,1.061,1.0609,1.0609,1.0596,1.0597,1.0597,1.0597,1.0559,1.0557,1.0556,0,0,0,0,0,0,0,0,0,0,0,0,0,1.0669,1.0696,1.0644,1.0633,1.0632,1.061,1.0609,1.0609,1.0596,1.0597,1.0597,1.0597,1.0559,1.0557,1.0556,1.0541,0,0,1.055,1.055,0,0,0,0,0,0,0,0,1.0671,1.0667,1.0635,1.0634,1.0632,1.0608,1.0614,1.0586,1.0596,1.061,1.0597,1.0597,1.0574,1.0571,1.0564,1.0539,1.0538,1.055,1.0549,1.0549,1.0548,0,0,0,0,0,0,0,1.0673,1.0669,1.063,1.0635,1.0633,1.0629,1.0625,1.0608,1.0591,1.0609,1.0608,1.0604,1.0574,1.0566,1.0563,1.0537,1.055,1.0549,1.0548,1.0547,1.0499,1.0499,0,0,0,0,0,0,1.0677,1.067,1.0631,1.0629,1.0652,1.0628,1.0624,1.0615,1.0591,1.0588,1.0604,1.0603,1.0569,1.0565,1.0562,1.0544,1.0549,1.0547,1.0546,1.05,1.0499,1.0499,0,0,0,0,0,0,1.0678,1.0673,1.0633,1.065,1.0644,1.0627,1.0617,1.0614,1.0607,1.0588,1.0584,1.0599,1.0569,1.0564,1.0547,1.0542,1.0546,1.0545,1.05,1.05,1.0499,1.0507,0,0,0,0,0,0,1.068,1.0674,1.0669,1.065,1.0643,1.0619,1.0617,1.0614,1.0604,1.0604,1.0583,1.0579,1.0569,1.055,1.0545,1.054,1.0543,1.05,1.05,1.0499,1.0507,1.0507,1.0507,0,0,0,0,0,1.0681,1.0671,1.0668,1.0664,1.0636,1.0619,1.0615,1.0604,1.0604,1.0598,1.0586,1.058,1.0544,1.0548,1.0543,1.0537,1.05,1.05,1.0499,1.0507,1.0507,1.0507,0,0,0,0,0,0,1.0688,1.0668,1.0665,1.0648,1.0636,1.0617,1.0609,1.0604,1.0589,1.0589,1.0575,1.057,1.0554,1.0544,1.0549,1.0522,1.0522,1.052,1.0529,1.0529,1.0529,1.0531,1.0542,0,0,0,0,0,1.0688,1.0677,1.0659,1.0646,1.064,1.0626,1.0618,1.061,1.0596,1.059,1.0576,1.0562,1.0547,1.0538,1.0523,1.0506,1.0501,1.05,1.05,1.05,1.0498,1.0489,1.0488,1.0497,1.0497,1.0497,0,0,1.0687,1.0675,1.0668,1.0647,1.0636,1.0624,1.0621,1.0608,1.0598,1.0587,1.057,1.056,1.0543,1.0526,1.0518,1.0517,1.0495,1.0499,1.0499,1.0498,1.0488,1.0488,1.0487,1.0497,1.0497,1.0497,0,0,1.0679,1.0669,1.0657,1.0647,1.0631,1.0622,1.0619,1.0602,1.0595,1.0578,1.057,1.0558,1.0533,1.0522,1.0512,1.0502,1.0496,1.0498,1.0497,1.0488,1.0487,1.0487,1.0483,1.0482,1.0497,1.0497,1.0497,0,1.0679,1.0661,1.0651,1.0639,1.063,1.0622,1.061,1.06,1.058,1.0574,1.0574,1.0543,1.0531,1.0511,1.0509,1.0502,1.0498,1.0499,1.0489,1.0488,1.0487,1.0483,1.0482,1.0497,1.0497,1.0497,1.0497,0,1.0663,1.065,1.0643,1.0625,1.0615,1.0603,1.0591,1.0583,1.0577,1.0568,1.0551,1.0536,1.0519,1.0514,1.0507,1.0494,1.0494,1.0492,1.0491,1.0487,1.0483,1.0481,1.0497,1.0497,1.0497,1.0497,0,0,1.0656,1.0635,1.0632,1.0625,1.0608,1.0597,1.0585,1.057,1.0563,1.055,1.0539,1.0519,1.0517,1.0506,1.0499,1.0491,1.0484,1.0489,1.0489,1.0489,1.0469,1.0471,1.0469,1.0481,1.048,1.048,1.047,0,1.0645,1.0624,1.0616,1.0598,1.0586,1.058,1.0569,1.0557,1.0548,1.0537,1.0527,1.0513,1.0512,1.0506,1.0498,1.0487,1.048,1.0487,1.047,1.0469,1.0474,1.0467,1.0469,1.046,1.0469,1.0469,1.0468,0,1.063,1.0618,1.06,1.0585,1.058,1.0571,1.0557,1.0546,1.0533,1.0527,1.0517,1.051,1.0497,1.0498,1.0479,1.0484,1.0477,1.047,1.047,1.0467,1.0468,1.0464,1.0457,1.0456,1.0466,1.0466,1.0466,0,1.0627,1.0607,1.0593,1.0587,1.057,1.0564,1.0556,1.0543,1.0535,1.0522,1.0517,1.0502,1.0494,1.0483,1.0473,1.0475,1.0455,1.0455,1.045,1.045,1.0445,1.0445,1.0436,1.0441,1.0441,1.0441,1.0441,0,1.0615,1.0604,1.0592,1.0583,1.0571,1.0562,1.055,1.0541,1.053,1.052,1.0513,1.0503,1.049,1.0479,1.0471,1.0457,1.0453,1.0448,1.0446,1.0448,1.0449,1.0442,1.0442,1.0441,1.0441,1.0441,1.0441,0,1.0609,1.0601,1.0586,1.0572,1.0568,1.0559,1.0547,1.0538,1.0531,1.0518,1.0514,1.0501,1.0488,1.0477,1.0458,1.0453,1.0438,1.0436,1.0443,1.0442,1.0437,1.0438,1.0423,1.0421,1.0428,1.0428,1.0428,0,1.0602,1.0594,1.058,1.0573,1.0566,1.0555,1.0547,1.0538,1.053,1.0515,1.0509,1.0495,1.0484,1.0462,1.0451,1.0437,1.0434,1.043,1.0432,1.0435,1.0434,1.0434,1.0434,1.043,1.0429,1.0429,1.0429,0,1.059,1.0587,1.0577,1.0565,1.0556,1.0546,1.0536,1.0531,1.052,1.0511,1.0498,1.049,1.0472,1.0459,1.0444,1.0436,1.0431,1.0429,1.0427,1.0429,1.0434,1.0431,1.0442,1.0429,1.0429,1.0429,1.0429,1.0429,1.0583,1.0576,1.0565,1.0554,1.0546,1.0537,1.0529,1.0521,1.051,1.0496,1.0492,1.0478,1.0466,1.0447,1.0438,1.0428,1.0427,1.0424,1.0423,1.0422,1.0423,1.0437,1.0425,1.0425,1.0425,1.0425,1.0425,0,1.0571,1.0564,1.0554,1.0541,1.0533,1.0531,1.052,1.0512,1.0501,1.0491,1.0481,1.0466,1.0454,1.0442,1.0429,1.0423,1.042,1.0419,1.0419,1.0418,1.0424,1.0427,1.0422,1.0422,1.0422,1.0422,1.0422,1.0422,1.0564,1.0551,1.0547,1.0531,1.0524,1.0512,1.0506,1.0498,1.049,1.0474,1.0465,1.0458,1.0447,1.0434,1.0422,1.0419,1.0414,1.0414,1.0411,1.0417,1.0417,1.0417,1.042,1.0413,1.0413,1.0405,1.0405,1.0405]},{"header":{"parameterUnit":"m.s-1","parameterCategory":1,"la1":30.2991,"la2":30.254,"lo1":-89.0895,"lo2":-89.0444,"dy":0.0017,"dx":0.0017,"nx":28,"ny":28,"refTime":"2023-11-01T09:00:00:Z","depth":0,"parameterNumber":3,"parameterNumberName":"V-component_of_WINDS"},"data":[0,0,0,0,0,0,0,0,0,0,0,0,0,0,0,0,0,0,0,0,0,0,0,0,0,0,0,0,0,0,0,0,0,0,0,0,0,0,0,0,0,0,0,0,0,0,0,0,0,0,0,0,0,0,0,0,0,0,-10.0269,-10.0271,0,-10.0453,-10.0455,-10.0457,-10.0342,-10.0337,-10.0332,-10.0326,-10.0507,-10.0517,-10.0526,0,0,0,0,0,0,0,0,0,0,0,0,0,-9.981,-9.9819,-10.0269,-10.0271,-10.0273,-10.0453,-10.0455,-10.0458,-10.0343,-10.0337,-10.033,-10.0324,-10.0504,-10.0515,-10.0527,0,0,0,0,0,0,0,0,0,0,0,0,0,-10.0003,-9.9822,-10.0268,-10.0238,-10.0237,-10.0452,-10.0455,-10.0459,-10.0345,-10.0337,-10.0328,-10.0321,-10.05,-10.0514,-10.0529,-10.0782,0,0,-10.0574,-10.058,0,0,0,0,0,0,0,0,-9.9992,-10.002,-10.024,-10.024,-10.024,-10.0367,-10.036,-10.0567,-10.0347,-10.0304,-10.0326,-10.0317,-10.0466,-10.0483,-10.0535,-10.079,-10.0798,-10.0575,-10.0584,-10.0591,-10.0595,0,0,0,0,0,0,0,-9.9979,-10.0011,-10.0341,-10.0243,-10.0243,-10.0213,-10.0231,-10.0398,-10.0428,-10.0307,-10.0299,-10.0323,-10.0465,-10.0522,-10.0539,-10.0801,-10.0575,-10.0588,-10.0597,-10.0603,-10.1272,-10.1281,0,0,0,0,0,0,-9.9969,-10.0001,-10.0335,-10.0347,-10.0094,-10.0228,-10.0248,-10.0334,-10.0426,-10.0432,-10.0329,-10.0317,-10.05,-10.0522,-10.0545,-10.0848,-10.059,-10.0604,-10.0613,-10.1264,-10.1274,-10.1284,0,0,0,0,0,0,-9.996,-10.0,-10.0328,-10.0172,-10.0211,-10.0244,-10.0341,-10.0342,-10.0399,-10.0443,-10.0447,-10.0383,-10.0495,-10.0524,-10.0724,-10.0852,-10.0611,-10.0624,-10.1253,-10.1267,-10.1279,-10.1456,0,0,0,0,0,0,-9.9947,-9.9997,-10.0095,-10.0175,-10.022,-10.0508,-10.0349,-10.0351,-10.0425,-10.0411,-10.0494,-10.05,-10.0491,-10.0703,-10.0739,-10.0868,-10.0636,-10.1242,-10.1259,-10.1275,-10.1438,-10.1473,-10.1503,0,0,0,0,0,-9.9931,-10.0136,-10.0101,-10.0142,-10.0344,-10.0515,-10.0541,-10.0528,-10.0436,-10.0534,-10.0563,-10.0497,-10.0833,-10.0725,-10.0764,-10.09,-10.1234,-10.1254,-10.1274,-10.1424,-10.1466,-10.1502,0,0,0,0,0,0,-10.0067,-10.0145,-10.0108,-10.0345,-10.0425,-10.0496,-10.0619,-10.0573,-10.0679,-10.066,-10.0637,-10.0657,-10.0867,-10.0903,-10.0781,-10.1149,-10.1018,-10.1047,-10.1119,-10.116,-10.1191,-10.1178,-10.0648,0,0,0,0,0,-10.0125,-10.026,-10.032,-10.0523,-10.0566,-10.0586,-10.066,-10.0644,-10.0724,-10.0756,-10.0799,-10.0878,-10.1,-10.1082,-10.1197,-10.1443,-10.1459,-10.1555,-10.1588,-10.1614,-10.1639,-10.1773,-10.1816,-10.135,-10.135,-10.135,0,0,-10.0245,-10.0305,-10.0391,-10.0552,-10.0612,-10.075,-10.0615,-10.0766,-10.0868,-10.0778,-10.0971,-10.1006,-10.1091,-10.1316,-10.1417,-10.1353,-10.1772,-10.164,-10.166,-10.1672,-10.1798,-10.1842,-10.1881,-10.1364,-10.1361,-10.1359,0,0,-10.0535,-10.0595,-10.0771,-10.0835,-10.0928,-10.0941,-10.0983,-10.1062,-10.1082,-10.1276,-10.1212,-10.1331,-10.1543,-10.1608,-10.1668,-10.1985,-10.1928,-10.2022,-10.2192,-10.2322,-10.2358,-10.2391,-10.2504,-10.2545,-10.2047,-10.2048,-10.2048,0,-10.0672,-10.0881,-10.0867,-10.1025,-10.1097,-10.1026,-10.1203,-10.1264,-10.139,-10.1441,-10.1367,-10.1633,-10.1686,-10.1925,-10.2003,-10.2054,-10.21,-10.2013,-10.2355,-10.2387,-10.2417,-10.2525,-10.2568,-10.2059,-10.2058,-10.2056,-10.2055,0,-10.1045,-10.1191,-10.1322,-10.1449,-10.1536,-10.1703,-10.1712,-10.1801,-10.1778,-10.1797,-10.1996,-10.2056,-10.2184,-10.2239,-10.2216,-10.2475,-10.2433,-10.2358,-10.2225,-10.2473,-10.2574,-10.2615,-10.2075,-10.2071,-10.2067,-10.2065,0,0,-10.1426,-10.1545,-10.1593,-10.165,-10.1749,-10.186,-10.2023,-10.215,-10.2228,-10.2316,-10.2452,-10.2634,-10.2566,-10.2635,-10.2618,-10.2733,-10.2981,-10.2643,-10.2645,-10.2705,-10.3271,-10.3327,-10.3375,-10.2944,-10.2951,-10.2958,-10.3264,0,-10.1723,-10.2012,-10.2004,-10.2271,-10.2406,-10.234,-10.2481,-10.2556,-10.2579,-10.2694,-10.2717,-10.2847,-10.2747,-10.2789,-10.2899,-10.2927,-10.3094,-10.2905,-10.3068,-10.3074,-10.305,-10.3428,-10.3488,-10.3774,-10.3303,-10.331,-10.3314,0,-10.2108,-10.2214,-10.2496,-10.2577,-10.2632,-10.2761,-10.2878,-10.2989,-10.3072,-10.308,-10.3159,-10.3124,-10.3287,-10.3151,-10.3375,-10.3247,-10.3313,-10.3337,-10.3347,-10.3362,-10.321,-10.3454,-10.3865,-10.3908,-10.3376,-10.3371,-10.3367,0,-10.2359,-10.2571,-10.2768,-10.2819,-10.2917,-10.3009,-10.3054,-10.3129,-10.3206,-10.3307,-10.3357,-10.3475,-10.3539,-10.363,-10.3627,-10.3528,-10.3855,-10.3718,-10.3865,-10.3866,-10.3937,-10.3933,-10.4365,-10.3979,-10.3978,-10.3978,-10.3977,0,-10.2692,-10.2867,-10.2883,-10.3004,-10.3198,-10.3186,-10.3377,-10.3412,-10.348,-10.3605,-10.3554,-10.3671,-10.3661,-10.3779,-10.3778,-10.3964,-10.3993,-10.4003,-10.4001,-10.4009,-10.4008,-10.4052,-10.4032,-10.3989,-10.3986,-10.3984,-10.3982,0,-10.3005,-10.3022,-10.3233,-10.331,-10.3333,-10.3473,-10.3537,-10.3651,-10.367,-10.3829,-10.3865,-10.3894,-10.403,-10.4037,-10.4193,-10.4192,-10.442,-10.4394,-10.4393,-10.4389,-10.4536,-10.4523,-10.5013,-10.5077,-10.4648,-10.4652,-10.4656,0,-10.3217,-10.3351,-10.3444,-10.3526,-10.3577,-10.3708,-10.3788,-10.3781,-10.3866,-10.3972,-10.4073,-10.4206,-10.4312,-10.4533,-10.4566,-10.4685,-10.4663,-10.4827,-10.468,-10.4684,-10.4666,-10.4659,-10.4672,-10.4855,-10.486,-10.4864,-10.4867,0,-10.3592,-10.3594,-10.3713,-10.3837,-10.3934,-10.403,-10.4118,-10.4187,-10.419,-10.4288,-10.4429,-10.4512,-10.4674,-10.4806,-10.4922,-10.4965,-10.4917,-10.4913,-10.4953,-10.4963,-10.4957,-10.4963,-10.4472,-10.4901,-10.4898,-10.4895,-10.4894,-10.4892,-10.3861,-10.3978,-10.4062,-10.4196,-10.4263,-10.4348,-10.446,-10.4493,-10.4612,-10.4746,-10.4733,-10.489,-10.4969,-10.5121,-10.5174,-10.5295,-10.5238,-10.5297,-10.5312,-10.5327,-10.5343,-10.4938,-10.5315,-10.5314,-10.5313,-10.5313,-10.5312,0,-10.4234,-10.4286,-10.4409,-10.4537,-10.4643,-10.4591,-10.4687,-10.4778,-10.4918,-10.4997,-10.5103,-10.5266,-10.5394,-10.5438,-10.5562,-10.565,-10.5631,-10.5683,-10.5677,-10.5687,-10.5386,-10.5339,-10.5696,-10.5696,-10.5696,-10.5696,-10.5696,-10.5696,-10.4441,-10.4636,-10.4649,-10.4876,-10.4924,-10.5081,-10.514,-10.5217,-10.5281,-10.5466,-10.5573,-10.5602,-10.5667,-10.5796,-10.591,-10.5919,-10.5968,-10.6029,-10.6029,-10.5747,-10.5708,-10.5671,-10.5627,-10.604,-10.604,-10.6321,-10.6324,-10.6326]}]]